{"data":{"norad_id":58359,"intl_designator":"2023-177J","name":"STARLINK-30878","alt_names":[],"object_type":"PAYLOAD","status":"ACTIVE","operator":null,"country":"US","launch_date":"2023-11-18","launch_site_code":"AFETR","launch_vehicle":null,"mission":null,"orbit_class":"UNKNOWN","rcs_meters":null,"size_class":null,"mass_kg":null,"dimensions":null,"purposes":["comms"],"wikipedia_slug":null,"has_3d_model":false,"image_url":null,"decayed_at":null,"tle_current":{"epoch":"2026-09-20T06:00:24.046848Z","epoch_age_seconds":165251,"freshness":"FRESH","line1":"1 58359U 23177J   26263.25027832  .00000014  00000+0  10039-4 0  9999","line2":"2 58359  43.0031 335.1686 0001056 266.6152  93.4579 15.27575892157949","mean_motion":15.27575892,"eccentricity":0.0001056,"inclination_deg":43.0031,"raan_deg":335.1686,"arg_perigee_deg":266.6152,"mean_anomaly_deg":93.4579,"bstar":1.0039e-5,"rev_number":15794,"period_min":94.26700221844,"perigee_km":482.33685434635,"apogee_km":483.78593944778,"semimajor_km":6861.1983968971,"source":"CELESTRAK","updated_at":"2026-09-21T09:00:33.842391Z"}}}